Volver al catálogo

STARLINK-3884

ActivoComunicacionesVLEO
NORAD 52497·PAYLOAD·🇺🇸 United States

Lanzado May 6, 2022 desde Cape Canaveral Space Force Station

Loading…

Próximos Pases (próximas 24 horas)

TLE

ActualizadoSource: CelesTrak SupGP

Época: Sep 14, 2026, 21:30 UTC

1 52497C 22049AY  26257.89631944  .00048456  00000+0  14705-2 0  2572
2 52497  53.1580 270.2515 0001204  84.9828 311.9484 15.33521855    18

Sigue STARLINK-3884 en tiempo real con AllMySat

Download on the App Store